Weather in Kozlovka

Russia / Voronezh Oblast     50°51′43″N   40°27′31″E
temp.,
°C
wind,
m/s
gust,
m/s
humid.,
%
clouds,
%
prec.,
mm/h
press.,
hPa
HPBL,
m
18 august, thu
thu1800:00+24e91737100 0.0 1009693
03:00+23e715405 0.0 1009521
06:00+21ene5134269 0.0 1009428
09:00+27e81031100 0.0 1009822
12:00+30e8932100 0.0 10091326
15:00+31e663286 0.0 10091621
18:00+26ene7949100 0.3 1009944
21:00+20ene71479100 1.9 1011385
19 august, fri
fri1900:00+19ene71673100 2.3 1011548
03:00+18ne5128096 3.2 1011319
06:00+19e71572100 0.4 1011497
09:00+19e71468100 1.6 1013668
12:00+23ese91449100 0.4 10141359
15:00+25ese71244100 0.7 10141650
18:00+23ene111846100 0.0 1013916
21:00+24ese131938100 0.0 10141163
20 august, sat
sat2000:00+23ese12203918 0.0 1016994
03:00+22ese111944100 0.0 1017934
06:00+23ese91636100 0.0 10181055
09:00+25ese101528100 0.0 10191220
12:00+28ese91524100 0.0 10191509
15:00+28ese101522100 0.0 10191663
18:00+27ese10142598 0.0 10191144
21:00+24e91722100 0.0 1020713
21 august, sun
sun2100:00+23ese81719100 0.0 1020563
03:00+21ese8161884 0.0 1021504
06:00+20ese61421100 0.0 1021476
09:00+23ese81420100 0.0 1021665
12:00+27ese81015100 0.0 10201395
15:00+30ese7911100 0.0 10192249
18:00+28e5101399 0.0 1019566
21:00+22e61519100 0.0 1019311
22 august, mon
mon2200:00+21e6152558 0.0 1019312
03:00+19e5123267 0.0 1019232
06:00+18e513405 0.0 1020229
09:00+26ese812276 0.0 10201091
12:00+31ese811195 0.0 10192322
15:00+32ese810166 0.0 10182911
18:00+31ese69184 0.0 1018971
21:00+23e410285 0.0 1019131